Location: Newark
(42.9277°N, 71.8621°W)
Time: 19:39:40
(UTC+00:00)

Transit 4A - Pass Details

Date: 19 May 2021
Orbit: 872 x 973 km, 66.8° (Epoch: 15 June)

Event Time Altitude Azimuth Distance (km) Brightness Sun altitude
Rises 05:23:44 0° 334° (NNW) 3,492 11.7 -26.6°
Reaches altitude 10° 05:26:29 10° 343° (NNW) 2,540 11.0 -26.5°
Maximum altitude 05:31:48 34° 48° (NE) 1,393 9.2 -26.3°
Drops below altitude 10° 05:37:03 10° 113° (ESE) 2,517 10.1 -26.1°
Enters shadow 05:37:30 - 115° (ESE) 2,664 10.2 -26.0°
